Location: Cosy Dell
(34.2789°N, 117.4537°W)
Time: 20:21:38
(UTC+00:00)

Cosmos 1378 - Pass Details

Date: 14 July 2020
Orbit: 493 x 501 km, 82.5° (Epoch: 13 August)

Event Time Altitude Azimuth Distance (km) Brightness Sun altitude
Rises 11:22:20 0° 343° (NNW) 2,599 7.1 -15.7°
Reaches altitude 10° 11:24:34 10° 334° (NNW) 1,711 6.0 -15.3°
Maximum altitude 11:28:00 35° 268° (W) 824 3.8 -14.8°
Enters shadow 11:29:14 27° 228° (SW) 982 4.0 -14.6°
